RYR2TL EPMO-EGSS

Flight info

Callsign RYR2TL
Flight time N/A
Altitude 38000
Route OLILA DCT MEBIV DCT RILAB L621 SOMOR DCT TADAK L29 ALUKA DCT GARLU DCT NOGRO M40 RINIS
Aircraft B738/M-V/N

Departure

Time 2026-05-08 19:48
Airport Warsaw Modlin Airport (EPMO)

Arrival

Time N/A
Airport London Stansted Airport (EGSS)
Time Latitude Longitude Altitude Speed Heading
2026-05-08 19:19 52.44752 20.65337 338 ft 0 kts 207°
2026-05-08 19:35 52.44763 20.65346 338 ft 2 kts 207°
2026-05-08 19:36 52.44774 20.65355 338 ft 0 kts 207°
2026-05-08 19:36 52.44790 20.65358 338 ft 3 kts 151°
2026-05-08 19:36 52.44799 20.65336 338 ft 2 kts 92°
2026-05-08 19:36 52.44799 20.65324 338 ft 1 kts 77°
2026-05-08 19:37 52.44798 20.65319 338 ft 0 kts 81°
2026-05-08 19:41 52.44800 20.65336 337 ft 4 kts 81°
2026-05-08 19:41 52.44804 20.65386 337 ft 4 kts 83°
2026-05-08 19:41 52.44809 20.65446 337 ft 10 kts 81°
2026-05-08 19:41 52.44821 20.65574 338 ft 12 kts 82°
2026-05-08 19:42 52.44831 20.65693 340 ft 9 kts 83°
2026-05-08 19:42 52.44840 20.65795 340 ft 9 kts 81°
2026-05-08 19:42 52.44849 20.65888 340 ft 9 kts 82°
2026-05-08 19:42 52.44862 20.66020 340 ft 17 kts 81°
2026-05-08 19:43 52.44881 20.66222 339 ft 18 kts 82°
2026-05-08 19:43 52.44900 20.66421 339 ft 17 kts 82°
2026-05-08 19:43 52.44917 20.66601 338 ft 17 kts 81°
2026-05-08 19:43 52.44933 20.66778 338 ft 16 kts 81°
2026-05-08 19:44 52.44948 20.66931 338 ft 10 kts 81°
2026-05-08 19:44 52.44961 20.67038 338 ft 9 kts 61°
2026-05-08 19:44 52.45022 20.67066 336 ft 9 kts 353°
2026-05-08 19:44 52.45090 20.67052 335 ft 10 kts 353°
2026-05-08 19:45 52.45159 20.67038 334 ft 10 kts 352°
2026-05-08 19:45 52.45175 20.67035 333 ft 10 kts 352°
2026-05-08 19:45 52.45216 20.67012 332 ft 8 kts 340°
2026-05-08 19:45 52.45266 20.66982 331 ft 8 kts 339°
2026-05-08 19:46 52.45289 20.66958 331 ft 7 kts 294°
2026-05-08 19:46 52.45282 20.66884 331 ft 8 kts 261°
2026-05-08 19:46 52.45224 20.66265 334 ft 81 kts 261°
2026-05-08 19:47 52.45114 20.65093 335 ft 135 kts 261°
2026-05-08 19:47 52.45070 20.64601 334 ft 150 kts 263°
2026-05-08 19:47 52.45064 20.64534 334 ft 151 kts 263°
2026-05-08 19:47 52.45014 20.63934 499 ft 151 kts 263°
2026-05-08 19:48 52.44885 20.62314 949 ft 159 kts 265°
2026-05-08 19:48 52.44763 20.60457 1293 ft 178 kts 266°
2026-05-08 19:48 52.44559 20.58474 1597 ft 200 kts 259°
2026-05-08 19:48 52.44409 20.56273 1956 ft 215 kts 279°
2026-05-08 19:49 52.44959 20.54244 2573 ft 212 kts 315°
2026-05-08 19:49 52.46084 20.52931 3286 ft 208 kts 338°
2026-05-08 19:49 52.47367 20.52287 3892 ft 211 kts 351°
2026-05-08 19:49 52.48820 20.52077 4325 ft 224 kts 358°
2026-05-08 19:50 52.50383 20.51986 4722 ft 239 kts 356°
2026-05-08 19:50 52.51918 20.51200 5051 ft 255 kts 326°
2026-05-08 19:50 52.52985 20.49065 5621 ft 264 kts 295°
2026-05-08 19:50 52.53377 20.46413 6256 ft 268 kts 280°
2026-05-08 19:51 52.53554 20.43611 6923 ft 270 kts 277°
2026-05-08 19:51 52.53688 20.40789 7561 ft 273 kts 277°
2026-05-08 19:51 52.53837 20.38034 8240 ft 274 kts 277°
2026-05-08 19:51 52.54011 20.35242 8870 ft 277 kts 278°
2026-05-08 19:52 52.54208 20.32350 9552 ft 278 kts 277°
2026-05-08 19:52 52.54408 20.29476 10287 ft 279 kts 277°
2026-05-08 19:52 52.54615 20.26516 10711 ft 292 kts 277°
2026-05-08 19:52 52.54825 20.23457 11049 ft 307 kts 277°
2026-05-08 19:53 52.55050 20.20141 11413 ft 321 kts 277°
2026-05-08 19:53 52.55280 20.16763 12079 ft 325 kts 277°
2026-05-08 19:53 52.55512 20.13355 12777 ft 327 kts 277°
2026-05-08 19:53 52.55745 20.09943 13496 ft 330 kts 277°
2026-05-08 19:54 52.55973 20.06586 14159 ft 334 kts 277°
2026-05-08 19:54 52.56210 20.03103 14842 ft 337 kts 277°
2026-05-08 19:54 52.56446 19.99618 15560 ft 339 kts 277°
2026-05-08 19:54 52.56679 19.96164 16243 ft 341 kts 277°
2026-05-08 19:55 52.56915 19.92657 16909 ft 344 kts 277°
2026-05-08 19:55 52.57157 19.89044 17542 ft 347 kts 277°
2026-05-08 19:55 52.57389 19.85550 18206 ft 348 kts 277°
2026-05-08 19:55 52.57621 19.82053 18736 ft 353 kts 277°
2026-05-08 19:56 52.57854 19.78506 19353 ft 355 kts 277°
2026-05-08 19:56 52.58090 19.74912 19957 ft 357 kts 277°
2026-05-08 19:56 52.58330 19.71245 20552 ft 360 kts 277°
2026-05-08 19:56 52.58567 19.67598 21115 ft 362 kts 277°
2026-05-08 19:57 52.58813 19.63809 21717 ft 364 kts 277°
2026-05-08 19:57 52.59067 19.59867 22292 ft 367 kts 277°
2026-05-08 19:57 52.59316 19.55978 22841 ft 370 kts 277°
2026-05-08 19:57 52.59562 19.52126 23365 ft 372 kts 277°
2026-05-08 19:58 52.59798 19.48410 23976 ft 371 kts 277°
2026-05-08 19:58 52.60040 19.44562 24421 ft 375 kts 277°
2026-05-08 19:58 52.60279 19.40759 24927 ft 376 kts 277°